Time,TemperatureF,DewpointF,PressureIn,WindDirection,WindDirectionDegrees,WindSpeedMPH,WindSpeedGustMPH,Humidity,HourlyPrecipIn,Conditions,Clouds,dailyrainin,SoftwareType,DateUTC
2013-03-04 00:01:00,42.6,34.5,29.67,SE,125,7.0,7.0,73,0.00,,,0.00,Wunderground v.1.15,2013-03-04 06:01:00,
2013-03-04 00:11:00,42.5,34.5,29.68,ESE,114,6.0,6.0,73,0.00,,,0.00,Wunderground v.1.15,2013-03-04 06:11:00,
2013-03-04 00:22:00,42.4,34.7,29.67,SE,125,5.0,6.0,74,0.00,,,0.00,Wunderground v.1.15,2013-03-04 06:22:00,
2013-03-04 00:32:00,42.7,34.6,29.67,ESE,116,6.0,6.0,73,0.00,,,0.00,Wunderground v.1.15,2013-03-04 06:32:00,
2013-03-04 00:42:00,43.5,34.7,29.66,ESE,120,8.0,9.0,71,0.00,,,0.00,Wunderground v.1.15,2013-03-04 06:42:00,
2013-03-04 00:52:00,42.7,34.6,29.66,ESE,110,6.0,6.0,73,0.00,,,0.00,Wunderground v.1.15,2013-03-04 06:52:00,
2013-03-04 01:02:00,42.7,34.6,29.66,ESE,103,5.0,6.0,73,0.00,,,0.00,Wunderground v.1.15,2013-03-04 07:02:00,
2013-03-04 01:12:00,42.9,34.8,29.66,ESE,118,7.0,7.0,73,0.00,,,0.00,Wunderground v.1.15,2013-03-04 07:12:00,
2013-03-04 01:22:00,43.1,35.0,29.66,ESE,112,8.0,8.0,73,0.00,,,0.00,Wunderground v.1.15,2013-03-04 07:22:00,
2013-03-04 01:32:00,43.6,35.2,29.66,ESE,110,7.0,7.0,72,0.00,,,0.00,Wunderground v.1.15,2013-03-04 07:32:00,
2013-03-04 01:42:00,44.5,35.3,29.66,East,101,7.0,7.0,70,0.00,,,0.00,Wunderground v.1.15,2013-03-04 07:42:00,
2013-03-04 01:52:00,44.6,35.4,29.65,ESE,103,7.0,7.0,70,0.00,,,0.00,Wunderground v.1.15,2013-03-04 07:52:00,
2013-03-04 02:01:00,44.7,35.1,29.65,ESE,105,7.0,7.0,69,0.00,,,0.00,Wunderground v.1.15,2013-03-04 08:01:00,
2013-03-04 02:12:00,45.1,35.2,29.66,East,101,7.0,7.0,68,0.00,,,0.00,Wunderground v.1.15,2013-03-04 08:12:00,
2013-03-04 02:22:00,44.6,35.1,29.65,ESE,114,6.0,6.0,69,0.00,,,0.00,Wunderground v.1.15,2013-03-04 08:22:00,
2013-03-04 02:31:00,43.4,35.0,29.64,ESE,106,6.0,6.0,72,0.00,,,0.00,Wunderground v.1.15,2013-03-04 08:31:00,
2013-03-04 02:41:00,43.5,35.1,29.64,ESE,115,6.0,7.0,72,0.00,,,0.00,Wunderground v.1.15,2013-03-04 08:41:00,
2013-03-04 02:51:00,43.8,35.4,29.64,East,95,7.0,7.0,72,0.00,,,0.00,Wunderground v.1.15,2013-03-04 08:51:00,
2013-03-04 03:01:00,44.0,35.2,29.64,East,87,5.0,6.0,71,0.00,,,0.00,Wunderground v.1.15,2013-03-04 09:01:00,
2013-03-04 03:11:00,43.8,35.0,29.63,East,99,6.0,9.0,71,0.00,,,0.00,Wunderground v.1.15,2013-03-04 09:11:00,
2013-03-04 03:21:00,43.8,35.0,29.63,ESE,108,5.0,6.0,71,0.00,,,0.00,Wunderground v.1.15,2013-03-04 09:21:00,
2013-03-04 03:31:00,43.7,34.9,29.62,ESE,104,6.0,7.0,71,0.00,,,0.00,Wunderground v.1.15,2013-03-04 09:31:00,
2013-03-04 03:41:00,43.6,35.2,29.63,East,92,5.0,6.0,72,0.00,,,0.00,Wunderground v.1.15,2013-03-04 09:41:00,
2013-03-04 03:51:00,43.5,35.1,29.63,East,82,5.0,5.0,72,0.00,,,0.00,Wunderground v.1.15,2013-03-04 09:51:00,
2013-03-04 04:01:00,43.4,34.6,29.62,ENE,60,6.0,7.0,71,0.00,,,0.00,Wunderground v.1.15,2013-03-04 10:01:00,
2013-03-04 04:11:00,43.2,34.8,29.62,ENE,65,7.0,7.0,72,0.00,,,0.00,Wunderground v.1.15,2013-03-04 10:11:00,
2013-03-04 04:21:00,42.9,34.5,29.62,ENE,61,5.0,5.0,72,0.00,,,0.00,Wunderground v.1.15,2013-03-04 10:21:00,
2013-03-04 04:31:00,42.6,34.5,29.62,ENE,60,6.0,8.0,73,0.00,,,0.00,Wunderground v.1.15,2013-03-04 10:31:00,
2013-03-04 04:42:00,42.7,34.6,29.62,ENE,58,6.0,6.0,73,0.00,,,0.00,Wunderground v.1.15,2013-03-04 10:42:00,
2013-03-04 04:52:00,42.6,34.5,29.62,ENE,70,6.0,7.0,73,0.00,,,0.00,Wunderground v.1.15,2013-03-04 10:52:00,
2013-03-04 05:02:00,42.2,34.2,29.62,NE,55,5.0,6.0,73,0.00,,,0.00,Wunderground v.1.15,2013-03-04 11:02:00,
2013-03-04 05:12:00,42.1,34.4,29.63,ENE,64,5.0,6.0,74,0.00,,,0.00,Wunderground v.1.15,2013-03-04 11:12:00,
2013-03-04 05:22:00,42.0,34.3,29.64,NE,51,5.0,5.0,74,0.00,,,0.00,Wunderground v.1.15,2013-03-04 11:22:00,
2013-03-04 05:32:00,41.2,33.5,29.65,North,11,4.0,4.0,74,0.00,,,0.00,Wunderground v.1.15,2013-03-04 11:32:00,
2013-03-04 05:41:00,39.3,33.0,29.65,North,6,4.0,5.0,78,0.00,,,0.00,Wunderground v.1.15,2013-03-04 11:41:00,
2013-03-04 05:51:00,38.3,32.7,29.66,NNE,13,4.0,5.0,80,0.00,,,0.00,Wunderground v.1.15,2013-03-04 11:51:00,
2013-03-04 06:02:00,38.0,32.7,29.66,North,11,5.0,5.0,81,0.00,,,0.00,Wunderground v.1.15,2013-03-04 12:02:00,
2013-03-04 06:11:00,38.0,33.0,29.66,NNE,13,5.0,5.0,82,0.00,,,0.00,Wunderground v.1.15,2013-03-04 12:11:00,
2013-03-04 06:21:00,37.8,32.5,29.67,NNW,329,7.0,7.0,81,0.00,,,0.00,Wunderground v.1.15,2013-03-04 12:21:00,
2013-03-04 06:31:00,37.7,32.4,29.67,NNE,21,7.0,7.0,81,0.00,,,0.00,Wunderground v.1.15,2013-03-04 12:31:00,
2013-03-04 06:41:00,38.0,32.7,29.67,North,6,7.0,7.0,81,0.00,,,0.00,Wunderground v.1.15,2013-03-04 12:41:00,
2013-03-04 06:51:00,37.7,32.4,29.67,NNE,25,8.0,9.0,81,0.00,,,0.00,Wunderground v.1.15,2013-03-04 12:51:00,
2013-03-04 07:01:00,37.3,32.0,29.67,NNE,24,7.0,7.0,81,0.00,,,0.00,Wunderground v.1.15,2013-03-04 13:01:00,
2013-03-04 07:11:00,37.6,32.3,29.67,NNE,23,8.0,8.0,81,0.00,,,0.00,Wunderground v.1.15,2013-03-04 13:11:00,
2013-03-04 07:21:00,37.3,32.0,29.68,NNE,18,7.0,9.0,81,0.00,,,0.00,Wunderground v.1.15,2013-03-04 13:21:00,
2013-03-04 07:31:00,37.2,31.9,29.68,NNE,26,8.0,8.0,81,0.00,,,0.00,Wunderground v.1.15,2013-03-04 13:31:00,
2013-03-04 07:41:00,37.7,32.4,29.68,NNE,26,7.0,9.0,81,0.00,,,0.00,Wunderground v.1.15,2013-03-04 13:41:00,
2013-03-04 07:51:00,38.6,32.6,29.68,North,10,9.0,9.0,79,0.00,,,0.00,Wunderground v.1.15,2013-03-04 13:51:00,
2013-03-04 08:01:00,39.2,32.9,29.69,NE,41,8.0,8.0,78,0.00,,,0.00,Wunderground v.1.15,2013-03-04 14:01:00,
2013-03-04 08:11:00,39.5,33.2,29.69,NNE,25,7.0,7.0,78,0.00,,,0.00,Wunderground v.1.15,2013-03-04 14:11:00,
2013-03-04 08:22:00,39.7,33.4,29.69,NE,41,6.0,6.0,78,0.00,,,0.00,Wunderground v.1.15,2013-03-04 14:22:00,
2013-03-04 08:32:00,40.1,33.1,29.70,ENE,65,6.0,6.0,76,0.00,,,0.00,Wunderground v.1.15,2013-03-04 14:32:00,
2013-03-04 08:42:00,40.4,33.4,29.70,NE,40,7.0,8.0,76,0.00,,,0.00,Wunderground v.1.15,2013-03-04 14:42:00,
2013-03-04 08:52:00,40.7,33.7,29.71,NNW,330,7.0,7.0,76,0.00,,,0.00,Wunderground v.1.15,2013-03-04 14:52:00,
2013-03-04 09:02:00,40.8,33.5,29.71,North,1,7.0,11.0,75,0.00,,,0.00,Wunderground v.1.15,2013-03-04 15:02:00,
2013-03-04 09:12:00,40.9,34.2,29.71,NNE,23,9.0,9.0,77,0.00,,,0.00,Wunderground v.1.15,2013-03-04 15:12:00,
2013-03-04 09:22:00,41.1,33.8,29.71,NNE,18,7.0,8.0,75,0.00,,,0.00,Wunderground v.1.15,2013-03-04 15:22:00,
2013-03-04 09:31:00,41.5,34.5,29.71,NW,314,7.0,7.0,76,0.00,,,0.00,Wunderground v.1.15,2013-03-04 15:31:00,
2013-03-04 09:41:00,42.2,34.8,29.71,NW,313,5.0,5.0,75,0.00,,,0.00,Wunderground v.1.15,2013-03-04 15:41:00,
2013-03-04 09:52:00,42.6,35.2,29.72,North,352,5.0,5.0,75,0.00,,,0.00,Wunderground v.1.15,2013-03-04 15:52:00,
2013-03-04 10:01:00,42.9,34.8,29.72,NE,40,5.0,5.0,73,0.00,,,0.00,Wunderground v.1.15,2013-03-04 16:01:00,
2013-03-04 10:11:00,43.3,35.6,29.72,North,355,5.0,5.0,74,0.00,,,0.00,Wunderground v.1.15,2013-03-04 16:11:00,
2013-03-04 10:21:00,43.7,35.6,29.72,WNW,290,7.0,7.0,73,0.00,,,0.00,Wunderground v.1.15,2013-03-04 16:21:00,
2013-03-04 10:31:00,44.0,36.2,29.73,NNW,343,8.0,12.0,74,0.00,,,0.00,Wunderground v.1.15,2013-03-04 16:31:00,
2013-03-04 10:41:00,44.0,35.9,29.73,NNW,333,12.0,13.0,73,0.00,,,0.00,Wunderground v.1.15,2013-03-04 16:41:00,
2013-03-04 10:51:00,44.1,36.3,29.74,NNE,16,13.0,14.0,74,0.00,,,0.00,Wunderground v.1.15,2013-03-04 16:51:00,
2013-03-04 11:01:00,43.7,36.0,29.73,NNW,343,15.0,15.0,74,0.00,,,0.00,Wunderground v.1.15,2013-03-04 17:01:00,
2013-03-04 11:11:00,42.7,35.7,29.74,North,1,18.0,18.0,76,0.00,,,0.00,Wunderground v.1.15,2013-03-04 17:11:00,
2013-03-04 11:21:00,42.7,36.0,29.75,NNE,20,15.0,23.0,77,0.00,,,0.00,Wunderground v.1.15,2013-03-04 17:21:00,
2013-03-04 11:31:00,42.0,35.6,29.75,NE,37,18.0,19.0,78,0.00,,,0.00,Wunderground v.1.15,2013-03-04 17:31:00,
2013-03-04 11:41:00,41.9,35.9,29.75,NNE,22,19.0,21.0,79,0.00,,,0.00,Wunderground v.1.15,2013-03-04 17:41:00,
2013-03-04 11:51:00,42.7,37.0,29.76,NE,46,16.0,16.0,80,0.00,,,0.00,Wunderground v.1.15,2013-03-04 17:51:00,
2013-03-04 12:01:00,42.7,37.0,29.75,NNE,12,12.0,21.0,80,0.00,,,0.00,Wunderground v.1.15,2013-03-04 18:01:00,
2013-03-04 12:12:00,43.1,37.3,29.76,NNE,16,14.0,20.0,80,0.00,,,0.00,Wunderground v.1.15,2013-03-04 18:12:00,
2013-03-04 12:22:00,42.0,36.9,29.76,North,357,19.0,24.0,82,0.00,,,0.00,Wunderground v.1.15,2013-03-04 18:22:00,
2013-03-04 12:32:00,41.6,36.8,29.75,NNE,15,20.0,26.0,83,0.00,,,0.00,Wunderground v.1.15,2013-03-04 18:32:00,
2013-03-04 12:42:00,41.7,36.9,29.75,NNE,23,18.0,23.0,83,0.00,,,0.00,Wunderground v.1.15,2013-03-04 18:42:00,
2013-03-04 12:52:00,41.7,36.9,29.75,NE,34,17.0,17.0,83,0.00,,,0.00,Wunderground v.1.15,2013-03-04 18:52:00,
2013-03-04 13:02:00,42.0,37.5,29.75,North,11,18.0,18.0,84,0.00,,,0.00,Wunderground v.1.15,2013-03-04 19:02:00,
2013-03-04 13:11:00,41.8,37.0,29.75,NNE,15,18.0,18.0,83,0.00,,,0.00,Wunderground v.1.15,2013-03-04 19:11:00,
2013-03-04 13:22:00,42.0,37.5,29.74,NNE,13,18.0,18.0,84,0.00,,,0.00,Wunderground v.1.15,2013-03-04 19:22:00,
2013-03-04 13:32:00,42.2,37.4,29.74,NNE,18,17.0,17.0,83,0.00,,,0.00,Wunderground v.1.15,2013-03-04 19:32:00,
2013-03-04 13:41:00,42.4,37.3,29.74,ENE,77,17.0,17.0,82,0.00,,,0.00,Wunderground v.1.15,2013-03-04 19:41:00,
2013-03-04 13:51:00,42.1,37.3,29.75,NNE,16,17.0,18.0,83,0.00,,,0.00,Wunderground v.1.15,2013-03-04 19:51:00,
2013-03-04 14:01:00,42.3,37.5,29.75,ENE,57,19.0,19.0,83,0.00,,,0.00,Wunderground v.1.15,2013-03-04 20:01:00,
2013-03-04 14:11:00,42.6,37.5,29.75,NE,34,16.0,17.0,82,0.00,,,0.00,Wunderground v.1.15,2013-03-04 20:11:00,
2013-03-04 14:21:00,42.8,37.4,29.75,North,352,16.0,16.0,81,0.00,,,0.00,Wunderground v.1.15,2013-03-04 20:21:00,
2013-03-04 14:31:00,42.6,37.2,29.75,NNE,25,16.0,16.0,81,0.00,,,0.00,Wunderground v.1.15,2013-03-04 20:31:00,
2013-03-04 14:41:00,42.7,37.3,29.76,NNE,30,17.0,17.0,81,0.00,,,0.00,Wunderground v.1.15,2013-03-04 20:41:00,
2013-03-04 14:51:00,42.7,37.3,29.76,North,350,17.0,20.0,81,0.00,,,0.00,Wunderground v.1.15,2013-03-04 20:51:00,
2013-03-04 15:01:00,42.7,37.6,29.77,North,1,18.0,18.0,82,0.00,,,0.00,Wunderground v.1.15,2013-03-04 21:01:00,
2013-03-04 15:11:00,43.1,37.7,29.77,NNE,25,12.0,12.0,81,0.00,,,0.00,Wunderground v.1.15,2013-03-04 21:11:00,
2013-03-04 15:21:00,43.4,38.0,29.77,NNW,347,13.0,16.0,81,0.00,,,0.00,Wunderground v.1.15,2013-03-04 21:21:00,
2013-03-04 15:31:00,43.4,37.3,29.78,NNW,340,16.0,16.0,79,0.00,,,0.00,Wunderground v.1.15,2013-03-04 21:31:00,
2013-03-04 15:41:00,43.8,37.7,29.78,North,350,15.0,15.0,79,0.00,,,0.00,Wunderground v.1.15,2013-03-04 21:41:00,
2013-03-04 15:52:00,43.9,37.8,29.78,NNE,27,16.0,18.0,79,0.00,,,0.00,Wunderground v.1.15,2013-03-04 21:52:00,
2013-03-04 16:02:00,43.5,37.7,29.79,NNE,19,16.0,16.0,80,0.00,,,0.00,Wunderground v.1.15,2013-03-04 22:02:00,
2013-03-04 16:12:00,43.6,37.8,29.80,NNE,22,12.0,15.0,80,0.00,,,0.00,Wunderground v.1.15,2013-03-04 22:12:00,
2013-03-04 16:22:00,43.7,38.3,29.81,North,359,12.0,12.0,81,0.00,,,0.00,Wunderground v.1.15,2013-03-04 22:22:00,
2013-03-04 16:32:00,43.6,37.8,29.81,NNE,32,13.0,18.0,80,0.00,,,0.00,Wunderground v.1.15,2013-03-04 22:32:00,
2013-03-04 16:42:00,43.5,37.7,29.82,NNE,13,13.0,13.0,80,0.00,,,0.00,Wunderground v.1.15,2013-03-04 22:42:00,
2013-03-04 16:52:00,43.3,37.9,29.83,WNW,295,9.0,10.0,81,0.00,,,0.00,Wunderground v.1.15,2013-03-04 22:52:00,
2013-03-04 17:02:00,42.9,37.8,29.84,NNW,343,8.0,15.0,82,0.00,,,0.00,Wunderground v.1.15,2013-03-04 23:02:00,
2013-03-04 17:12:00,42.7,37.6,29.85,NW,311,9.0,10.0,82,0.00,,,0.00,Wunderground v.1.15,2013-03-04 23:12:00,
2013-03-04 17:22:00,42.2,37.1,29.86,WNW,286,11.0,11.0,82,0.00,,,0.00,Wunderground v.1.15,2013-03-04 23:22:00,
2013-03-04 17:31:00,42.0,36.9,29.87,North,6,11.0,14.0,82,0.00,,,0.00,Wunderground v.1.15,2013-03-04 23:31:00,
2013-03-04 17:41:00,41.9,36.8,29.88,WSW,248,11.0,12.0,82,0.00,,,0.00,Wunderground v.1.15,2013-03-04 23:41:00,
2013-03-04 17:51:00,41.7,36.3,29.89,NNW,328,11.0,13.0,81,0.00,,,0.00,Wunderground v.1.15,2013-03-04 23:51:00,
2013-03-04 18:01:00,41.6,36.2,29.90,NNW,348,11.0,18.0,81,0.00,,,0.00,Wunderground v.1.15,2013-03-05 00:01:00,
2013-03-04 18:11:00,41.3,36.2,29.90,NNW,347,12.0,12.0,82,0.00,,,0.00,Wunderground v.1.15,2013-03-05 00:11:00,
2013-03-04 18:21:00,41.1,36.0,29.91,NNW,337,11.0,11.0,82,0.00,,,0.00,Wunderground v.1.15,2013-03-05 00:21:00,
2013-03-04 18:31:00,40.9,36.1,29.92,NNW,348,10.0,10.0,83,0.00,,,0.00,Wunderground v.1.15,2013-03-05 00:31:00,
2013-03-04 18:41:00,40.9,36.1,29.92,NNW,333,10.0,11.0,83,0.00,,,0.00,Wunderground v.1.15,2013-03-05 00:41:00,
2013-03-04 18:51:00,40.8,35.7,29.93,NNW,336,13.0,13.0,82,0.00,,,0.00,Wunderground v.1.15,2013-03-05 00:51:00,
2013-03-04 19:01:00,40.5,35.7,29.93,NE,50,15.0,15.0,83,0.00,,,0.00,Wunderground v.1.15,2013-03-05 01:01:00,
2013-03-04 19:11:00,40.4,35.3,29.94,WNW,300,16.0,16.0,82,0.00,,,0.00,Wunderground v.1.15,2013-03-05 01:11:00,
2013-03-04 19:21:00,40.4,35.3,29.96,North,6,14.0,18.0,82,0.00,,,0.00,Wunderground v.1.15,2013-03-05 01:21:00,
2013-03-04 19:31:00,40.3,35.2,29.96,NNE,16,15.0,16.0,82,0.00,,,0.00,Wunderground v.1.15,2013-03-05 01:31:00,
2013-03-04 19:41:00,39.9,35.2,29.96,NW,323,18.0,18.0,83,0.00,,,0.00,Wunderground v.1.15,2013-03-05 01:41:00,
2013-03-04 19:51:00,39.7,35.3,29.95,North,9,19.0,19.0,84,0.00,,,0.00,Wunderground v.1.15,2013-03-05 01:51:00,
2013-03-04 20:01:00,39.9,34.9,29.97,North,11,21.0,24.0,82,0.00,,,0.00,Wunderground v.1.15,2013-03-05 02:01:00,
2013-03-04 20:12:00,39.7,34.7,29.98,NNE,18,20.0,20.0,82,0.00,,,0.00,Wunderground v.1.15,2013-03-05 02:12:00,
2013-03-04 20:21:00,39.7,35.0,29.99,NNE,26,23.0,23.0,83,0.00,,,0.00,Wunderground v.1.15,2013-03-05 02:21:00,
2013-03-04 20:31:00,39.4,35.0,30.02,North,360,19.0,20.0,84,0.00,,,0.00,Wunderground v.1.15,2013-03-05 02:31:00,
2013-03-04 20:42:00,39.3,34.9,30.03,NNE,21,18.0,18.0,84,0.00,,,0.00,Wunderground v.1.15,2013-03-05 02:42:00,
2013-03-04 20:52:00,39.3,34.6,30.05,NNE,23,15.0,15.0,83,0.00,,,0.00,Wunderground v.1.15,2013-03-05 02:52:00,
2013-03-04 21:02:00,39.2,35.1,30.07,North,8,13.0,15.0,85,0.00,,,0.00,Wunderground v.1.15,2013-03-05 03:02:00,
2013-03-04 21:11:00,39.0,35.2,30.08,WNW,300,10.0,10.0,86,0.00,,,0.00,Wunderground v.1.15,2013-03-05 03:11:00,
2013-03-04 21:22:00,39.1,35.3,30.08,NW,315,11.0,11.0,86,0.00,,,0.00,Wunderground v.1.15,2013-03-05 03:22:00,
2013-03-04 21:32:00,38.9,35.4,30.08,North,359,15.0,19.0,87,0.00,,,0.00,Wunderground v.1.15,2013-03-05 03:32:00,
2013-03-04 21:41:00,38.6,35.4,30.09,North,358,12.0,20.0,88,0.00,,,0.00,Wunderground v.1.15,2013-03-05 03:41:00,
2013-03-04 21:52:00,37.8,34.8,30.09,North,4,16.0,22.0,89,0.00,,,0.01,Wunderground v.1.15,2013-03-05 03:52:00,
2013-03-04 22:02:00,37.2,34.5,30.10,North,354,16.0,18.0,90,0.07,,,0.02,Wunderground v.1.15,2013-03-05 04:02:00,
2013-03-04 22:12:00,36.8,34.4,30.11,NE,45,16.0,16.0,91,0.05,,,0.02,Wunderground v.1.15,2013-03-05 04:12:00,
2013-03-04 22:22:00,36.7,34.6,30.11,North,352,15.0,18.0,92,0.00,,,0.03,Wunderground v.1.15,2013-03-05 04:22:00,
2013-03-04 22:32:00,36.7,34.6,30.10,North,352,15.0,15.0,92,0.00,,,0.03,Wunderground v.1.15,2013-03-05 04:32:00,
2013-03-04 22:42:00,36.8,34.7,30.11,NNW,340,11.0,12.0,92,0.00,,,0.03,Wunderground v.1.15,2013-03-05 04:42:00,
2013-03-04 22:51:00,36.8,34.7,30.11,NNW,343,10.0,10.0,92,0.00,,,0.03,Wunderground v.1.15,2013-03-05 04:51:00,
2013-03-04 23:01:00,36.7,34.6,30.12,NNE,16,7.0,8.0,92,0.00,,,0.03,Wunderground v.1.15,2013-03-05 05:01:00,
2013-03-04 23:11:00,36.7,34.6,30.13,North,10,6.0,6.0,92,0.00,,,0.03,Wunderground v.1.15,2013-03-05 05:11:00,
2013-03-04 23:21:00,36.7,34.3,30.12,NW,304,7.0,7.0,91,0.00,,,0.03,Wunderground v.1.15,2013-03-05 05:21:00,
2013-03-04 23:31:00,36.6,34.5,30.12,WNW,293,6.0,6.0,92,0.00,,,0.03,Wunderground v.1.15,2013-03-05 05:31:00,
2013-03-04 23:42:00,36.6,34.5,30.14,NW,326,7.0,7.0,92,0.00,,,0.03,Wunderground v.1.15,2013-03-05 05:42:00,
2013-03-04 23:52:00,36.6,34.5,30.15,NW,310,9.0,11.0,92,0.00,,,0.03,Wunderground v.1.15,2013-03-05 05:52:00,